User: anonymous   Login
Location: Unspecified
(0.0000°N, 0.0000°E)
Time: 22:54:25
(UTC+02:00)
Language:

ARIANE 5 R/B - Orbit

View from above orbital plane
View from above orbital plane
View from above satellite
View from above satellite

Ground track
Ground track

The orbit data is extracted from the following two-line orbital elements,

1 27387U 02009B   17294.89193645 +.00000009 +00000-0 +17684-4 0  9995
2 27387 098.4781 242.1543 0033381 120.8176 239.6302 14.35939067819684
Epoch (UTC): 21 October 2017 21:24:23
Eccentricity: 0.0033381
inclination: 98.4781°
perigee height: 748 km
apogee height: 796 km
right ascension of ascending node: 242.1543°
argument of perigee: 120.8176°
revolutions per day: 14.35939067
mean anomaly at epoch: 239.6302°
orbit number at epoch: 81968

The dashed part of the orbit path shows where the satellite is in the earth's shadow,  

DLR